User: anonymous   Login
Location: Unspecified
(0.0000°N, 0.0000°E)
Time: 20:29:57
(UTC+00:00)
Language:

NNS O-27 - Orbit

View from above orbital plane
View from above orbital plane
View from above satellite
View from above satellite

Ground track
Ground track

The orbit data is extracted from the following two-line orbital elements,

1 18361U 87080A   23084.43823373  .00000156  00000-0  24424-3 0  9993
2 18361  90.3431  43.6367 0103753 188.0082 171.9415 13.44614490742328
Epoch (UTC): 25 March 2023 10:31:03
Eccentricity: 0.0103753
inclination: 90.3431°
perigee height: 1014 km
apogee height: 1169 km
right ascension of ascending node: 43.6367°
argument of perigee: 188.0082°
revolutions per day: 13.44614490
mean anomaly at epoch: 171.9415°
orbit number at epoch: 74232

The dashed part of the orbit path shows where the satellite is in the earth's shadow,  

DLR